Location: Angwan Shehu
(11.2514°N, 7.4613°E)
Time: 01:34:08
(UTC+00:00)

Tiros 1 - Pass Details

Date: 21 April 2021
Orbit: 630 x 664 km, 48.4° (Epoch: 06 May)

Event Time Altitude Azimuth Distance (km) Brightness Sun altitude
Rises 06:41:01 0° 243° (WSW) 2,959 10.0 19.7°
Reaches altitude 10° 06:43:40 10° 255° (WSW) 2,042 9.2 20.4°
Maximum altitude 06:47:37 26° 313° (NW) 1,247 8.5 21.3°
Drops below altitude 10° 06:51:33 10° 10° (N) 2,022 10.0 22.3°
Sets 06:54:10 0° 23° (NNE) 2,924 10.9 22.9°
